Location: Peterborough
(44.3091°N, 78.3197°W)
Time: 01:37:16
(UTC-04:00)

Vanguard 2 Rocket - Pass Details

Date: 31 March 2023
Orbit: 554 x 3314 km, 32.9° (Epoch: 02 June)

Event Time Altitude Azimuth Distance (km) Brightness Sun altitude
Rises 23:11:39 0° 263° (W) 3,968 10.6 -33.7°
Reaches altitude 10° 23:14:20 10° 252° (WSW) 3,315 9.9 -34.0°
Enters shadow 23:18:59 27° 219° (SW) 2,743 9.1 -34.5°
